Location: Unspecified
(38.9820°N, 94.4650°W)
Time: 14:17:23
(UTC-06:00)

CZ-3 Stage 3 - Visible Passes

Search period start: 04 March 2015 00:00
Search period end: 14 March 2015 01:00
Orbit: 430 x 34800 km, 31.0° (Epoch: 03 March)

Date Brightness Start Highest point End Pass type
(mag) Time Alt. Az. Time Alt. Az. Time Alt. Az.
05 Mar 7.0 14:46:22 10° SW 23:44:38 45° SW 23:47:45 44° SW visible
06 Mar 7.0 11:08:03 10° S 19:00:11 80° S 20:21:01 28° ESE visible
08 Mar 7.0 15:41:33 10° SW 00:39:24 44° SW 00:43:54 42° SW visible
09 Mar 7.0 12:02:22 10° S 19:59:57 80° S 21:17:09 26° ESE visible
11 Mar 6.9 15:36:47 10° SW 00:34:07 42° WSW 00:40:00 39° SW visible
12 Mar 7.0 11:56:44 10° S 19:59:03 79° S 21:13:13 24° ESE visible
